Location: Corralito
(10.2667°N, 66.9500°W)
Time: 17:36:27
(UTC+00:00)

Spot 4 Rocket - Pass Details

Date: 25 April 2024
Orbit: 772 x 777 km, 98.8° (Epoch: 22 May)

Event Time Altitude Azimuth Distance (km) Brightness Sun altitude
Rises 09:37:21 0° 21° (NNE) 3,243 7.8 -9.2°
Reaches altitude 10° 09:39:44 10° 27° (NNE) 2,315 7.1 -8.6°
Maximum altitude 09:44:40 50° 102° (ESE) 972 5.0 -7.4°
Drops below altitude 10° 09:49:36 10° 177° (S) 2,313 6.4 -6.3°
Sets 09:51:58 0° 182° (S) 3,239 7.1 -5.7°
